Location: Tehachapi Municipal Airport
(35.1300°N, 118.4400°W)
Time: 21:22:47
(UTC-07:00)

BREEZE M DEB (TANK) - Visible Passes

Search period start: 07 July 2015 00:00
Search period end: 17 July 2015 00:00
Orbit: 288 x 12109 km, 49.5° (Epoch: 05 July)

Date Brightness Start Highest point End Pass type
(mag) Time Alt. Az. Time Alt. Az. Time Alt. Az.
07 Jul 9.1 21:37:27 10° WNW 22:41:38 21° WSW 23:17:50 10° SW visible
08 Jul 8.9 20:54:23 10° WNW 21:58:50 29° WSW 22:49:46 10° SW visible
09 Jul 8.9 20:12:58 10° NW 21:15:38 37° WSW 22:17:56 10° SSW visible
10 Jul 8.8 19:32:31 10° NW 20:32:02 45° WSW 21:43:44 10° SSW visible
11 Jul 8.8 18:52:42 10° NW 19:48:05 53° WSW 21:07:52 10° S visible
12 Jul 8.8 18:13:18 10° NW 19:03:54 62° SW 20:30:44 10° S visible
14 Jul 9.4 21:20:26 10° WNW 22:18:23 14° WSW 22:36:36 10° WSW visible
15 Jul 9.2 20:34:36 10° WNW 21:34:57 22° WSW 22:14:24 10° SW visible
16 Jul 9.1 19:51:53 10° WNW 20:51:18 30° WSW 21:45:53 10° SSW visible
